Time,TemperatureF,DewpointF,PressureIn,WindDirection,WindDirectionDegrees,WindSpeedMPH,WindSpeedGustMPH,Humidity,HourlyPrecipIn,Conditions,Clouds,dailyrainin,SoftwareType,DateUTC
2013-05-02 00:02:00,68.2,7.2,29.82,West,270,2.2,-999.0,9,-99.99,,,0.00,Acu-Link.com,2013-05-02 06:02:00,
2013-05-02 00:17:00,69.6,8.3,29.84,NE,45,8.3,-999.0,9,-99.99,,,0.00,Acu-Link.com,2013-05-02 06:17:00,
2013-05-02 00:32:00,68.9,24.9,29.85,NE,45,9.4,-999.0,19,-99.99,,,0.00,Acu-Link.com,2013-05-02 06:32:00,
2013-05-02 00:48:00,67.1,32.0,29.86,NE,45,14.5,-999.0,27,-99.99,,,0.00,Acu-Link.com,2013-05-02 06:48:00,
2013-05-02 01:03:00,65.7,35.0,29.88,ESE,112,10.9,-999.0,32,-99.99,,,0.00,Acu-Link.com,2013-05-02 07:03:00,
2013-05-02 01:18:00,63.7,36.2,29.88,East,90,15.5,-999.0,36,-99.99,,,0.00,Acu-Link.com,2013-05-02 07:18:00,
2013-05-02 01:33:00,62.1,36.2,29.88,ESE,112,6.3,-999.0,38,-99.99,,,0.00,Acu-Link.com,2013-05-02 07:33:00,
2013-05-02 01:48:00,59.9,34.9,29.90,ENE,67,17.6,-999.0,39,-99.99,,,0.00,Acu-Link.com,2013-05-02 07:48:00,
2013-05-02 02:04:00,58.5,34.3,29.91,SSW,202,2.7,-999.0,40,-99.99,,,0.00,Acu-Link.com,2013-05-02 08:04:00,
2013-05-02 02:19:00,58.1,33.9,29.92,NW,315,6.3,-999.0,40,-99.99,,,0.00,Acu-Link.com,2013-05-02 08:19:00,
2013-05-02 02:34:00,57.2,33.7,29.93,ESE,112,6.3,-999.0,41,-99.99,,,0.00,Acu-Link.com,2013-05-02 08:34:00,
2013-05-02 02:49:00,55.8,32.5,29.95,ESE,112,7.8,-999.0,41,-99.99,,,0.00,Acu-Link.com,2013-05-02 08:49:00,
2013-05-02 03:06:00,54.1,32.1,29.98,ENE,67,6.8,-999.0,43,-99.99,,,0.00,Acu-Link.com,2013-05-02 09:06:00,
2013-05-02 03:21:00,52.9,32.7,29.99,ESE,112,8.9,-999.0,46,-99.99,,,0.00,Acu-Link.com,2013-05-02 09:21:00,
2013-05-02 03:36:00,51.8,31.7,30.01,NE,45,16.1,-999.0,46,-99.99,,,0.00,Acu-Link.com,2013-05-02 09:36:00,
2013-05-02 03:51:00,52.2,32.1,30.01,NE,45,8.9,-999.0,46,-99.99,,,0.00,Acu-Link.com,2013-05-02 09:51:00,
2013-05-02 04:06:00,51.3,31.2,30.03,NE,45,4.7,-999.0,46,-99.99,,,0.00,Acu-Link.com,2013-05-02 10:06:00,
2013-05-02 04:21:00,50.4,30.9,30.05,NNE,22,10.4,-999.0,47,-99.99,,,0.00,Acu-Link.com,2013-05-02 10:21:00,
2013-05-02 04:36:00,50.0,30.6,30.06,ENE,67,6.3,-999.0,47,-99.99,,,0.00,Acu-Link.com,2013-05-02 10:36:00,
2013-05-02 04:51:00,49.8,30.9,30.08,East,90,6.3,-999.0,48,-99.99,,,0.00,Acu-Link.com,2013-05-02 10:51:00,
2013-05-02 05:07:00,48.7,30.4,30.09,ENE,67,14.5,-999.0,49,-99.99,,,0.00,Acu-Link.com,2013-05-02 11:07:00,
2013-05-02 05:25:00,48.0,29.8,30.10,NNE,22,8.9,-999.0,49,-99.99,,,0.00,Acu-Link.com,2013-05-02 11:25:00,
2013-05-02 05:40:00,47.3,29.6,30.11,East,90,13.0,-999.0,50,-99.99,,,0.00,Acu-Link.com,2013-05-02 11:40:00,
2013-05-02 05:55:00,47.5,29.8,30.12,East,90,8.9,-999.0,50,-99.99,,,0.00,Acu-Link.com,2013-05-02 11:55:00,
2013-05-02 06:10:00,48.2,30.4,30.13,NE,45,6.3,-999.0,50,-99.99,,,0.00,Acu-Link.com,2013-05-02 12:10:00,
2013-05-02 06:25:00,46.8,29.2,30.15,NE,45,9.4,-999.0,50,-99.99,,,0.00,Acu-Link.com,2013-05-02 12:25:00,
2013-05-02 06:40:00,46.6,29.0,30.15,East,90,15.5,-999.0,50,-99.99,,,0.00,Acu-Link.com,2013-05-02 12:40:00,
2013-05-02 06:55:00,47.3,29.1,30.16,NNE,22,15.0,-999.0,49,-99.99,,,0.00,Acu-Link.com,2013-05-02 12:55:00,
2013-05-02 07:10:00,47.5,27.8,30.18,NE,45,14.5,-999.0,46,-99.99,,,0.00,Acu-Link.com,2013-05-02 13:10:00,
2013-05-02 07:26:00,48.2,27.3,30.19,ENE,67,10.9,-999.0,44,-99.99,,,0.00,Acu-Link.com,2013-05-02 13:26:00,
2013-05-02 07:41:00,48.6,26.0,30.20,NE,45,19.7,-999.0,41,-99.99,,,0.00,Acu-Link.com,2013-05-02 13:41:00,
2013-05-02 07:57:00,48.6,26.0,30.20,NE,45,11.4,-999.0,41,-99.99,,,0.00,Acu-Link.com,2013-05-02 13:57:00,
2013-05-02 08:12:00,49.5,25.6,30.22,ESE,112,12.5,-999.0,39,-99.99,,,0.00,Acu-Link.com,2013-05-02 14:12:00,
2013-05-02 08:28:00,49.8,25.2,30.22,NE,45,13.5,-999.0,38,-99.99,,,0.00,Acu-Link.com,2013-05-02 14:28:00,
2013-05-02 08:43:00,51.1,25.1,30.23,ENE,67,13.5,-999.0,36,-99.99,,,0.00,Acu-Link.com,2013-05-02 14:43:00,
2013-05-02 08:58:00,51.8,24.3,30.24,ESE,112,10.9,-999.0,34,-99.99,,,0.00,Acu-Link.com,2013-05-02 14:58:00,
2013-05-02 09:13:00,53.1,25.5,30.24,ENE,67,11.9,-999.0,34,-99.99,,,0.00,Acu-Link.com,2013-05-02 15:13:00,
2013-05-02 09:28:00,54.3,25.1,30.24,ENE,67,10.9,-999.0,32,-99.99,,,0.00,Acu-Link.com,2013-05-02 15:28:00,
2013-05-02 09:43:00,54.9,24.8,30.25,ESE,112,16.6,-999.0,31,-99.99,,,0.00,Acu-Link.com,2013-05-02 15:43:00,
2013-05-02 09:59:00,55.4,25.3,30.24,ENE,67,7.8,-999.0,31,-99.99,,,0.00,Acu-Link.com,2013-05-02 15:59:00,
2013-05-02 10:14:00,56.8,24.9,30.25,NNE,22,8.3,-999.0,29,-99.99,,,0.00,Acu-Link.com,2013-05-02 16:14:00,
2013-05-02 10:29:00,56.8,24.1,30.25,NE,45,17.6,-999.0,28,-99.99,,,0.00,Acu-Link.com,2013-05-02 16:29:00,
2013-05-02 10:44:00,57.9,24.1,30.26,NE,45,14.0,-999.0,27,-99.99,,,0.00,Acu-Link.com,2013-05-02 16:44:00,
2013-05-02 10:59:00,59.7,25.7,30.25,NNW,337,6.8,-999.0,27,-99.99,,,0.00,Acu-Link.com,2013-05-02 16:59:00,
2013-05-02 11:15:00,59.0,24.2,30.26,ESE,112,9.4,-999.0,26,-99.99,,,0.00,Acu-Link.com,2013-05-02 17:15:00,
2013-05-02 11:30:00,60.8,24.8,30.25,NNE,22,10.4,-999.0,25,-99.99,,,0.00,Acu-Link.com,2013-05-02 17:30:00,
2013-05-02 11:45:00,59.7,22.9,30.26,NNE,22,13.5,-999.0,24,-99.99,,,0.00,Acu-Link.com,2013-05-02 17:45:00,
2013-05-02 12:00:00,61.3,24.2,30.25,ENE,67,11.9,-999.0,24,-99.99,,,0.00,Acu-Link.com,2013-05-02 18:00:00,
2013-05-02 12:15:00,63.1,24.7,30.25,ESE,112,10.9,-999.0,23,-99.99,,,0.00,Acu-Link.com,2013-05-02 18:15:00,
2013-05-02 12:31:00,60.1,23.2,30.25,NE,45,11.9,-999.0,24,-99.99,,,0.00,Acu-Link.com,2013-05-02 18:31:00,
2013-05-02 12:46:00,61.2,24.1,30.24,NNE,22,9.9,-999.0,24,-99.99,,,0.00,Acu-Link.com,2013-05-02 18:46:00,
2013-05-02 13:01:00,61.3,24.2,30.24,ESE,112,8.9,-999.0,24,-99.99,,,0.00,Acu-Link.com,2013-05-02 19:01:00,
2013-05-02 13:16:00,60.8,23.8,30.23,ESE,112,13.5,-999.0,24,-99.99,,,0.00,Acu-Link.com,2013-05-02 19:16:00,
2013-05-02 13:31:00,62.6,24.3,30.22,East,90,5.8,-999.0,23,-99.99,,,0.00,Acu-Link.com,2013-05-02 19:31:00,
2013-05-02 13:46:00,62.1,22.8,30.23,ESE,112,11.4,-999.0,22,-99.99,,,0.00,Acu-Link.com,2013-05-02 19:46:00,
2013-05-02 14:02:00,62.8,22.3,30.22,East,90,15.5,-999.0,21,-99.99,,,0.00,Acu-Link.com,2013-05-02 20:02:00,
2013-05-02 14:18:00,62.1,21.7,30.22,East,90,12.5,-999.0,21,-99.99,,,0.00,Acu-Link.com,2013-05-02 20:18:00,
2013-05-02 14:33:00,63.0,23.6,30.21,ESE,112,16.6,-999.0,22,-99.99,,,0.00,Acu-Link.com,2013-05-02 20:33:00,
2013-05-02 14:48:00,64.2,23.5,30.20,ESE,112,10.9,-999.0,21,-99.99,,,0.00,Acu-Link.com,2013-05-02 20:48:00,
2013-05-02 15:04:00,63.7,21.9,30.20,ESE,112,14.0,-999.0,20,-99.99,,,0.00,Acu-Link.com,2013-05-02 21:04:00,
2013-05-02 15:20:00,63.3,21.6,30.20,East,90,9.4,-999.0,20,-99.99,,,0.00,Acu-Link.com,2013-05-02 21:20:00,
2013-05-02 15:35:00,63.1,21.4,30.19,NNE,22,10.4,-999.0,20,-99.99,,,0.00,Acu-Link.com,2013-05-02 21:35:00,
2013-05-02 15:51:00,63.1,21.4,30.19,ENE,67,15.5,-999.0,20,-99.99,,,0.00,Acu-Link.com,2013-05-02 21:51:00,
2013-05-02 16:07:00,64.2,22.3,30.19,East,90,19.1,-999.0,20,-99.99,,,0.00,Acu-Link.com,2013-05-02 22:07:00,
2013-05-02 16:23:00,63.1,21.4,30.18,NE,45,14.0,-999.0,20,-99.99,,,0.00,Acu-Link.com,2013-05-02 22:23:00,
2013-05-02 16:39:00,62.8,21.1,30.18,East,90,9.4,-999.0,20,-99.99,,,0.00,Acu-Link.com,2013-05-02 22:39:00,
2013-05-02 17:00:00,62.8,21.1,30.18,East,90,13.0,-999.0,20,-99.99,,,0.00,Acu-Link.com,2013-05-02 23:00:00,
2013-05-02 17:15:00,62.6,21.0,30.18,ESE,112,10.9,-999.0,20,-99.99,,,0.00,Acu-Link.com,2013-05-02 23:15:00,
2013-05-02 17:31:00,62.6,21.0,30.17,ENE,67,12.5,-999.0,20,-99.99,,,0.00,Acu-Link.com,2013-05-02 23:31:00,
2013-05-02 17:49:00,61.7,20.2,30.18,ESE,112,14.5,-999.0,20,-99.99,,,0.00,Acu-Link.com,2013-05-02 23:49:00,
2013-05-02 18:04:00,60.3,19.1,30.17,SSE,157,11.4,-999.0,20,-99.99,,,0.00,Acu-Link.com,2013-05-03 00:04:00,
2013-05-02 18:19:00,59.7,19.7,30.17,ESE,112,14.5,-999.0,21,-99.99,,,0.00,Acu-Link.com,2013-05-03 00:19:00,
2013-05-02 18:35:00,59.0,19.1,30.19,East,90,17.6,-999.0,21,-99.99,,,0.00,Acu-Link.com,2013-05-03 00:35:00,
2013-05-02 18:50:00,59.0,20.2,30.18,ESE,112,21.2,-999.0,22,-99.99,,,0.00,Acu-Link.com,2013-05-03 00:50:00,
2013-05-02 19:05:00,57.0,18.5,30.18,East,90,6.3,-999.0,22,-99.99,,,0.00,Acu-Link.com,2013-05-03 01:05:00,
2013-05-02 19:21:00,56.7,19.3,30.19,ESE,112,9.9,-999.0,23,-99.99,,,0.00,Acu-Link.com,2013-05-03 01:21:00,
2013-05-02 19:36:00,55.9,18.7,30.19,ESE,112,13.0,-999.0,23,-99.99,,,0.00,Acu-Link.com,2013-05-03 01:36:00,
2013-05-02 19:51:00,55.2,19.1,30.20,SE,135,22.7,-999.0,24,-99.99,,,0.00,Acu-Link.com,2013-05-03 01:51:00,
2013-05-02 20:06:00,54.5,18.5,30.20,ESE,112,15.0,-999.0,24,-99.99,,,0.00,Acu-Link.com,2013-05-03 02:06:00,
2013-05-02 20:21:00,54.1,18.1,30.21,East,90,14.0,-999.0,24,-99.99,,,0.00,Acu-Link.com,2013-05-03 02:21:00,
2013-05-02 20:36:00,54.0,18.0,30.22,NE,45,17.1,-999.0,24,-99.99,,,0.00,Acu-Link.com,2013-05-03 02:36:00,
2013-05-02 20:52:00,53.4,17.5,30.22,East,90,14.0,-999.0,24,-99.99,,,0.00,Acu-Link.com,2013-05-03 02:52:00,
2013-05-02 21:07:00,53.1,17.3,30.22,East,90,12.5,-999.0,24,-99.99,,,0.00,Acu-Link.com,2013-05-03 03:07:00,
2013-05-02 21:22:00,52.7,16.9,30.23,ESE,112,12.5,-999.0,24,-99.99,,,0.00,Acu-Link.com,2013-05-03 03:22:00,
2013-05-02 21:37:00,52.2,17.5,30.24,ESE,112,15.5,-999.0,25,-99.99,,,0.00,Acu-Link.com,2013-05-03 03:37:00,
2013-05-02 21:53:00,52.0,17.3,30.24,East,90,14.0,-999.0,25,-99.99,,,0.00,Acu-Link.com,2013-05-03 03:53:00,
2013-05-02 22:08:00,51.4,16.8,30.24,East,90,9.9,-999.0,25,-99.99,,,0.00,Acu-Link.com,2013-05-03 04:08:00,
2013-05-02 22:23:00,51.1,17.4,30.24,ENE,67,8.3,-999.0,26,-99.99,,,0.00,Acu-Link.com,2013-05-03 04:23:00,
2013-05-02 22:40:00,50.5,16.9,30.25,ESE,112,5.8,-999.0,26,-99.99,,,0.00,Acu-Link.com,2013-05-03 04:40:00,
2013-05-02 22:55:00,50.2,17.5,30.26,ESE,112,9.9,-999.0,27,-99.99,,,0.00,Acu-Link.com,2013-05-03 04:55:00,
2013-05-02 23:10:00,49.6,16.1,30.26,ESE,112,6.3,-999.0,26,-99.99,,,0.00,Acu-Link.com,2013-05-03 05:10:00,
2013-05-02 23:25:00,49.3,15.9,30.26,SE,135,8.3,-999.0,26,-99.99,,,0.00,Acu-Link.com,2013-05-03 05:25:00,
2013-05-02 23:40:00,48.7,15.4,30.26,ESE,112,5.3,-999.0,26,-99.99,,,0.00,Acu-Link.com,2013-05-03 05:40:00,
2013-05-02 23:55:00,48.6,16.2,30.26,ESE,112,7.3,-999.0,27,-99.99,,,0.00,Acu-Link.com,2013-05-03 05:55:00,